Grand Forks AFB, ND

11:25 AM CST on December 08, 2016 (GMT -0600)
Grand Forks Air Force Base

Weather History for KRDR - January, 2014

Change the Weather History Date:

Thursday, January 2, 2014

  Actual Average Record
Temperature  
Mean Temperature -16 °F -  
Max Temperature -5 °F 15 °F 41 °F (1997)
Min Temperature -27 °F 0 °F -27 °F (2014)
Degree Days  
Heating Degree Days 81    
Moisture  
Dew Point -21 °F    
Average Humidity 76    
Maximum Humidity 88    
Minimum Humidity 66    
Precipitation  
Precipitation 0.00 in - - ()
Sea Level Pressure  
Sea Level Pressure 30.41 in    
Wind  
Wind Speed 8 mph (SSW)    
Max Wind Speed 22 mph    
Max Gust Speed 28 mph    
Visibility 9 miles    
Events Snow    
Averages and records for this station are not official NWS values.
T = Trace of Precipitation, MM = Missing Value Source: NWS Daily Summary

Daily Weather History Graph

Daily Weather History Graph

Search for Another Location

Airport or City:

Trip Planner

Search our weather history database for the weather conditions in past years. The results will help you decide how hot, cold, wet, or windy it might be!

Date:

Astronomy

Jan. 02, 2014 Rise Set
Actual Time 8:19 AM CST 4:48 PM CST
Civil Twilight 7:43 AM CST 5:24 PM CST
Nautical Twilight 7:03 AM CST 6:03 PM CST
Astronomical Twilight 6:26 AM CST 6:41 PM CST
Moon 8:52 AM CST (1/2) 6:57 PM CST (1/2)
Length of Visible Light 9h 41m
Length of Day
8h 29m
Waxing Crescent, 3% of the Moon is Illuminated
Jan 2
Waxing Crescent
Jan 7
First Quarter
Jan 15
Full
Jan 23
Last Quarter
Jan 30
New

Hourly Weather History & Observations

Time (CST) Temp. Windchill Dew Point Humidity Pressure Visibility Wind Dir Wind Speed Gust Speed Precip Events Conditions
12:32 AM -25.6 °F -37.1 °F -29.2 °F 83% 30.47 in 10.0 mi WSW 3.5 mph - N/A   Clear
12:58 AM -25.8 °F -37.3 °F -29.9 °F 81% 30.59 in 10.0 mi West 3.5 mph - 0.00 in   Clear
1:58 AM -26.1 °F - -29.9 °F 82% 30.59 in 10.0 mi West 2.3 mph - 0.00 in   Clear
2:58 AM -26.3 °F -37.9 °F -29.9 °F 83% 30.61 in 10.0 mi West 3.5 mph - 0.00 in   Clear
3:58 AM -27.4 °F -41.9 °F -29.9 °F 88% 30.61 in 10.0 mi West 4.6 mph - 0.00 in   Clear
4:58 AM -26.3 °F -37.9 °F -29.9 °F 83% 30.60 in 10.0 mi West 3.5 mph - 0.00 in   Clear
5:58 AM -26.5 °F -40.8 °F -29.9 °F 84% 30.61 in 10.0 mi SSW 4.6 mph - 0.00 in Snow Light Snow
6:01 AM -25.6 °F -39.8 °F -29.2 °F 83% 30.47 in 10.0 mi SSW 4.6 mph - N/A   Clear
6:58 AM -25.1 °F -39.1 °F -29.9 °F 78% 30.61 in 10.0 mi WSW 4.6 mph - 0.00 in   Clear
7:58 AM -23.1 °F -38.9 °F -29.4 °F 72% 30.61 in 10.0 mi SW 5.8 mph - N/A   Clear
8:58 AM -24.3 °F -38.3 °F -29.9 °F 75% 30.61 in 10.0 mi SSW 4.6 mph - N/A   Clear
9:58 AM -19.1 °F -32.2 °F -25.2 °F 73% 30.61 in 10.0 mi SSW 4.6 mph - N/A   Clear
10:58 AM -13.0 °F -25.1 °F -20.2 °F 70% 30.61 in 10.0 mi SSW 4.6 mph - 0.00 in   Clear
11:58 AM -11.6 °F -25.3 °F -18.2 °F 72% 30.58 in 10.0 mi SSW 5.8 mph - 0.00 in Snow Light Snow
12:01 PM -11.2 °F -26.4 °F -18.4 °F 70% 30.45 in 10.0 mi SSW 6.9 mph - N/A   Clear
12:58 PM -7.6 °F -23.4 °F -16.1 °F 67% 30.58 in 10.0 mi SW 8.1 mph - 0.00 in   Clear
1:58 PM -6.9 °F -21.2 °F -15.5 °F 66% 30.55 in 10.0 mi SSW 6.9 mph - N/A   Clear
2:58 PM -6.7 °F -22.3 °F -14.6 °F 68% 30.51 in 10.0 mi South 8.1 mph - 0.00 in   Clear
3:58 PM -7.8 °F -23.6 °F -15.3 °F 70% 30.50 in 10.0 mi South 8.1 mph - N/A   Clear
4:58 PM -10.8 °F -28.6 °F -17.5 °F 72% 30.47 in 10.0 mi South 9.2 mph - N/A   Clear
5:58 PM -12.3 °F -33.4 °F -18.4 °F 74% 30.43 in 10.0 mi SSE 12.7 mph - N/A   Clear
6:58 PM -12.6 °F -32.9 °F -18.6 °F 75% 30.40 in 10.0 mi South 11.5 mph - N/A   Clear
7:58 PM -11.6 °F -32.5 °F -17.7 °F 74% 30.35 in 10.0 mi SSE 12.7 mph - N/A   Clear
8:36 PM -11.2 °F -35.2 °F -16.6 °F 77% 30.20 in 9.0 mi South 17.3 mph - N/A   Partly Cloudy
8:46 PM -11.2 °F -35.8 °F -16.6 °F 77% 30.18 in 10.0 mi South 18.4 mph - N/A   Scattered Clouds
8:51 PM -11.2 °F -35.2 °F -16.6 °F 77% 30.18 in 10.0 mi South 17.3 mph - N/A   Mostly Cloudy
8:58 PM -10.8 °F -34.0 °F -16.6 °F 76% 30.30 in 10.0 mi South 16.1 mph - N/A   Mostly Cloudy
9:08 PM -11.2 °F -35.8 °F -16.6 °F 77% 30.18 in 9.0 mi South 18.4 mph - N/A   Overcast
9:18 PM -11.2 °F -35.8 °F -16.6 °F 77% 30.17 in 7.0 mi South 18.4 mph - N/A   Overcast
9:58 PM -9.9 °F -34.2 °F -15.9 °F 75% 30.27 in 8.0 mi South 18.4 mph - N/A   Overcast
10:23 PM -9.4 °F -34.1 °F -14.8 °F 77% 30.12 in 6.0 mi South 19.6 mph - N/A   Haze
10:43 PM -7.6 °F -32.3 °F -14.8 °F 71% 30.09 in 5.0 mi South 20.7 mph - N/A   Haze
10:58 PM -7.8 °F -32.5 °F -13.7 °F 75% 30.19 in 7.0 mi South 20.7 mph - N/A   Overcast
11:53 PM -5.8 °F -30.5 °F -11.2 °F 77% 30.02 in 6.0 mi South 21.9 mph - N/A   Haze
11:58 PM -5.4 °F -28.9 °F -11.2 °F 76% 30.13 in 6.0 mi South 19.6 mph 27.6 mph N/A   Haze